Regional Weather Roundup
Issued by NWS

Home | Current Version | Previous Version | Text Only | Print | Product List | Glossary On
Versions: 1 2 3 4 5 6 7 8 9 10 11 12 13 14 15 16 17 18 19 20 21 22 23 24 25 26 27 28 29 30 31 32 33 34 35 36 37 38 39 40 41 42 43 44 45 46 47 48 49 50
000
ASCA42 TJSJ 281010
RWRPR
PUERTO RICO/U.S. VIRGIN ISLANDS HOURLY WEATHER ROUNDUP
NATIONAL WEATHER SERVICE SAN JUAN PR
600 AM AST SAT MAY 28 2016

PRZ001-004-281100-
PUERTO RICO

CITY           SKY/WX    TMP DP  RH WIND       PRES   REMARKS
SAN JUAN LMM   PTCLDY    79  75  89 CALM      29.98S
CEIBA          PTCLDY    81  75  83 SE8       30.00S
$$

PRZ006-007-281100-
U.S. VIRGIN ISLANDS

CITY           SKY/WX    TMP DP  RH WIND       PRES   REMARKS
CHARLOTTE AMA  PTCLDY    82  75  78 E12       29.98R
CHRISTIANSTED  PTCLDY    81  75  83 E12       29.98R
$$

HOURLY WEATHER ROUNDUP FOR THE NEWS MEDIA

CITY           SKY/WX    TMP DP  RH WIND       PRES   REMARKS
ORLANDO        CLEAR     73  68  84 CALM      29.99R
NEW YORK       MOCLDY    64  59  83 SW7       30.12R
NEWARK         MOCLDY    71  58  63 SW9       30.11R
CHICAGO        CLOUDY    69  64  84 S12       29.85S
HARTFORD       CLOUDY    63  57  81 SW7       30.08R
BOSTON         PTCLDY    67  58  72 SW10      30.04S
DALLAS         DRIZZLE   67  65  93 S10       29.85R FOG
PHILADELPHIA   MOCLDY    68  59  73 S6        30.14R
LOS ANGELES    CLOUDY    61  55  81 SW6       29.84F
WASHINGTON DC  FAIR      69  63  81 S6        30.12R


USA.gov is the U.S. government's official web portal to all federal, state and local government web resources and services.